Location: Allen Fire Department Station 4
(33.1073°N, 96.6988°W)
Time: 21:23:56
(UTC+00:00)

Aurora 2 Rocket - Pass Details

Date: 09 July 2022
Orbit: 389 x 1718 km, 25.0° (Epoch: 15 August)

Event Time Altitude Azimuth Distance (km) Brightness Sun altitude
Rises 02:26:26 0° 254° (WSW) 4,976 7.8 -9.4°
Reaches altitude 10° 02:29:56 10° 250° (WSW) 3,997 7.2 -10.0°
Maximum altitude 02:40:21 53° 178° (S) 1,900 4.8 -11.7°
Enters shadow 02:48:20 13° 106° (ESE) 3,180 5.6 -13.1°
